map of AJU home
Great Circle Mapper logo
AJU - Airport
Location
City:  Aracaju, Sergipe, Brazil
Name:Santa Maria
ICAO / IATA:SBAR / AJU

Details
Type:Airport (Aerodrome, Airfield)
Use:Public/Civil
Latitude:1059'02"S (-10.983999)
Longitude:3704'13"W (-37.070332)
Datum:WGS 1984
Elevation:23 ft (7 m)
Variation:23.05W (WMM2015 magnetic declination)
-0.00 annual change
Runways:1
Longest:7218 × 148 ft (2200 × 45 m), paved

Time
Time Zone:UTC-3
Local Time:

Weather
METAR:SBAR 031400Z 10005KT 9999 SCT013 BKN100 27/21 Q1020
TAF:SBAR 031000Z 0312/0324 14010KT 9999 SCT017 TX28/0315Z TN26/0321Z
RMK PCH

Related Locations
Nearby:
Farthest:ULI: 12225 mi / 19674 km
Falalop Island, Ulithi Atoll, YAP, FM

Find:

   beyond  
but within

Other Information
Maps:
NOTAMs:
Links:
Sources:

  
flag of Brazil
flag of Sergipe
  

Sectional Chart

Flight Planning
at skyvector.com

Satellite Image

Google Maps Satellite view

 

Copyright © 2004-2015 Karl L. Swartz. All rights reserved.
The Great Circle Mapper name and logo are trademarks of the Great Circle Mapper.
All other trademarks mentioned herein belong to their respective owners.
Please see credits for attibutions and further copyright information.

  Follow gcmap on Facebook Follow gcmap on Twitter Follow gcmap on Google+

hCard Microformat

Geo Microformat